This is the latest recevied weather packets stored in our database for station/object WX2NJ. If no packets are shown the sender has not sent any weather packets the latest 10 day(s).
| Time | Temp. | Humidity | Pressure | Rain* | Wind** | Luminosity | Snow |
|---|---|---|---|---|---|---|---|
| 1777515364 | 10° C | 91% | 1014.4 hPa | 1.78 mm | - | 0 W/m² | - |
| 1777515060 | 10° C | 91% | 1014.4 hPa | 0.51 mm | - | 0 W/m² | - |
| 1777514756 | 10° C | 91% | 1014.7 hPa | 0.51 mm | - | 0 W/m² | - |
| 1777514454 | 10° C | 91% | 1014.6 hPa | 0.51 mm | - | 0 W/m² | - |
| 1777514150 | 10° C | 91% | 1014.5 hPa | 0.51 mm | - | 0 W/m² | - |
| 1777513847 | 10° C | 91% | 1014.5 hPa | 1.27 mm | - | 0 W/m² | - |
| 1777513545 | 10° C | 91% | 1014.3 hPa | 1.27 mm | - | 0 W/m² | - |
| 1777513241 | 10° C | 91% | 1014.4 hPa | 1.27 mm | - | 0 W/m² | - |
| 1777512937 | 10° C | 91% | 1014.5 hPa | 1.78 mm | - | 0 W/m² | - |
| 1777512634 | 10° C | 91% | 1014.2 hPa | 0.51 mm | - | 0 W/m² | - |
| 1777512331 | 10° C | 90% | 1014.1 hPa | 0.51 mm | - | 0 W/m² | - |
| 1777512027 | 10° C | 90% | 1014.2 hPa | 0.51 mm | - | 0 W/m² | - |
| 1777511726 | 10° C | 90% | 1014.2 hPa | 0 mm | - | 0 W/m² | - |
| 1777511423 | 10° C | 90% | 1014.2 hPa | 0 mm | - | 0 W/m² | - |
| 1777511120 | 10° C | 90% | 1014.4 hPa | 0 mm | - | 0 W/m² | - |
| 1777510815 | 10° C | 90% | 1014.3 hPa | 0.51 mm | - | 0 W/m² | - |
| 1777510512 | 10° C | 90% | 1013.9 hPa | 1.27 mm | - | 0 W/m² | - |
| 1777510209 | 10° C | 89% | 1013.8 hPa | 0.51 mm | - | 0 W/m² | - |
| 1777509905 | 10° C | 89% | 1014 hPa | 0 mm | - | 0 W/m² | - |
| 1777509600 | 10° C | 88% | 1013.9 hPa | 0.51 mm | - | 0 W/m² | - |
| 1777509297 | 10.56° C | 88% | 1013.8 hPa | 0.51 mm | - | 0 W/m² | - |
| 1777508995 | 10.56° C | 88% | 1014.1 hPa | 0.51 mm | - | 0 W/m² | - |
| 1777508692 | 10.56° C | 87% | 1014.2 hPa | 0.51 mm | - | 0 W/m² | - |
| 1777508389 | 10.56° C | 86% | 1014.2 hPa | 0 mm | - | 0 W/m² | - |
| 1777508086 | 10.56° C | 86% | 1014.2 hPa | 0 mm | - | 0 W/m² | - |
* Rain latest hour (hover to see other rain measurements)
** Current wind speed in m/s (hover to see current wind gust speed)